Zurück zum Katalog

KUIPER-00051

AktivKommunikationLEO
NORAD 64511·PAYLOAD·🇺🇸 United States

Gestartet Jun 23, 2025 von Cape Canaveral Space Force Station

Loading…

Nächste Überflüge (nächste 24 Stunden)

TLE

AktuellSource: CelesTrak SupGP

Epoche: Sep 14, 2026, 22:04 UTC

1 64511C 25134M   26257.92001157 -.00002632  00000+0 -34459-3 0  2578
2 64511  51.8991 109.9573 0000883 108.8160 189.6088 14.79924620    14

Verfolge KUIPER-00051 in Echtzeit mit AllMySat

Download on the App Store